| time (UTC) | temp F | wind direction | speed knots | gust knots | rain 1hr in | rain 24hr in | rain mn in | humidity % | barometer mb |
| 20260506201600 | 0 | 0.0 | 0.0 | 0.00 | 0.01 | 0.01 | 1006.7 | ||
| 20260506200046 | 0 | 0.0 | 0.0 | 0.00 | 0.01 | 0.01 | 1006.9 | ||
| 20260506194552 | 0 | 0.0 | 0.0 | 0.00 | 0.01 | 0.01 | 1007.1 | ||
| 20260506193053 | 0 | 0.0 | 0.0 | 0.00 | 0.01 | 0.01 | 1007.0 | ||
| 20260506191544 | 0 | 0.0 | 0.0 | 0.00 | 0.01 | 0.01 | 1007.4 | ||
| 20260506190043 | 0 | 0.0 | 0.0 | 0.00 | 0.01 | 0.01 | 1007.5 | ||
| 20260506184553 | 0 | 0.0 | 0.0 | 0.00 | 0.01 | 0.01 | 1007.6 | ||
| 20260506183050 | 0 | 0.0 | 0.0 | 0.00 | 0.01 | 0.01 | 1007.8 | ||
| 20260506181550 | 0 | 0.0 | 0.0 | 0.00 | 0.01 | 0.01 | 1007.9 | ||
| 20260506180051 | 0 | 0.0 | 0.0 | 0.00 | 0.01 | 0.01 | 1007.8 | ||
| 20260506174549 | 0 | 0.0 | 0.0 | 0.00 | 0.01 | 0.01 | 1007.9 | ||
| 20260506173104 | 0 | 0.0 | 0.0 | 0.00 | 0.01 | 0.01 | 1008.0 | ||
| 20260506171555 | 0 | 0.0 | 0.0 | 0.00 | 0.01 | 0.01 | 1008.0 | ||
| 20260506170050 | 0 | 0.0 | 0.0 | 0.00 | 0.01 | 0.01 | 1008.0 | ||
| 20260506164549 | 0 | 0.0 | 0.0 | 0.00 | 0.01 | 0.01 | 1008.2 | ||
| 20260506163101 | 0 | 0.0 | 0.0 | 0.00 | 0.01 | 0.01 | 1008.0 | ||
| 20260506161554 | 0 | 0.0 | 0.0 | 0.00 | 0.01 | 0.01 | 1008.0 | ||
| 20260506160044 | 0 | 0.0 | 0.0 | 0.01 | 0.01 | 0.01 | 1008.7 | ||
| 20260506154600 | 0 | 0.0 | 0.0 | 0.01 | 0.01 | 0.01 | 1009.0 | ||
| 20260506153047 | 62 | 0.0 | 1.7 | 0.01 | 0.01 | 0.01 | 90 | 1008.9 | |
| 20260506151552 | 62 | 1 | 0.0 | 1.7 | 0.01 | 0.01 | 0.01 | 90 | 1008.8 |
| 20260506150043 | 0 | 0.0 | 0.0 | 0.00 | 0.00 | 0.00 | 1008.8 | ||
| 20260506144549 | 0 | 0.0 | 0.0 | 0.00 | 0.00 | 0.00 | 1009.0 | ||
| 20260506143046 | 0 | 0.0 | 0.0 | 0.00 | 0.00 | 0.00 | 1009.2 | ||
| 20260506141555 | 0 | 0.0 | 0.0 | 0.00 | 0.00 | 0.00 | 1009.0 | ||
| 20260506140059 | 0 | 0.0 | 0.0 | 0.00 | 0.00 | 0.00 | 1008.9 | ||
| 20260506134544 | 0 | 0.0 | 0.0 | 0.00 | 0.00 | 0.00 | 1009.0 | ||
| 20260506133047 | 0 | 0.0 | 0.0 | 0.00 | 0.00 | 0.00 | 1009.1 | ||
| 20260506131543 | 0 | 0.0 | 0.0 | 0.00 | 0.00 | 0.00 | 1009.2 | ||
| 20260506130043 | 0 | 0.0 | 0.0 | 0.00 | 0.00 | 0.00 | 1009.1 | ||
| 20260506124542 | 0 | 0.0 | 0.0 | 0.00 | 0.00 | 0.00 | 1009.1 | ||
| 20260506123050 | 0 | 0.0 | 0.0 | 0.00 | 0.00 | 0.00 | 1009.0 | ||
| 20260506121548 | 0 | 0.0 | 0.0 | 0.00 | 0.00 | 0.00 | 1009.0 | ||
| 20260506120108 | 0 | 0.0 | 0.0 | 0.00 | 0.00 | 0.00 | 1009.0 | ||
| 20260506114608 | 0 | 0.0 | 0.0 | 0.00 | 0.00 | 0.00 | 1009.1 | ||
| 20260506113051 | 0 | 0.0 | 0.0 | 0.00 | 0.00 | 0.00 | 1009.1 | ||
| 20260506111551 | 0 | 0.0 | 0.0 | 0.00 | 0.00 | 0.00 | 1009.2 | ||
| 20260506110047 | 0 | 0.0 | 0.0 | 0.00 | 0.00 | 0.00 | 1008.8 | ||
| 20260506104547 | 0 | 0.0 | 0.0 | 0.00 | 0.00 | 0.00 | 1008.7 | ||
| 20260506103042 | 0 | 311 | 0.9 | 5.2 | 0.00 | 0.00 | 0.00 | 1008.6 | |
| 20260506101541 | 64 | 262 | 0.0 | 2.6 | 0.00 | 0.00 | 0.00 | 77 | 1008.5 |
| 20260506100041 | 64 | 268 | 0.0 | 2.6 | 0.00 | 0.00 | 0.00 | 76 | 1008.8 |
| 20260506094546 | 64 | 278 | 0.9 | 2.6 | 0.00 | 0.01 | 0.00 | 76 | 1008.5 |
| 20260506093107 | 64 | 0 | 0.0 | 4.3 | 0.00 | 0.01 | 0.00 | 75 | 1008.6 |
| 20260506091549 | 64 | 310 | 0.0 | 1.7 | 0.00 | 0.01 | 0.00 | 75 | 1008.5 |
| 20260506090042 | 65 | 0 | 0.9 | 4.3 | 0.00 | 0.01 | 0.00 | 74 | 1008.7 |
| 20260506084551 | 64 | 244 | 0.0 | 1.7 | 0.00 | 0.01 | 0.00 | 73 | 1008.7 |
| 20260506083045 | 65 | 261 | 0.9 | 4.3 | 0.00 | 0.01 | 0.00 | 72 | 1008.8 |
| 20260506081549 | 64 | 0 | 0.0 | 2.6 | 0.00 | 0.01 | 0.00 | 71 | 1008.8 |
| 20260506073040 | 65 | 74 | 0.9 | 4.3 | 0.00 | 0.01 | 0.00 | 68 | 1008.9 |
| 20260506071544 | 66 | 127 | 0.0 | 4.3 | 0.00 | 0.01 | 0.00 | 67 | 1009.0 |
| 20260506061554 | 66 | 231 | 0.9 | 3.5 | 0.00 | 0.01 | 0.00 | 65 | 1009.5 |
| 20260506044547 | 67 | 332 | 0.9 | 4.3 | 0.00 | 0.01 | 0.00 | 64 | 1009.8 |
| 20260506043048 | 67 | 0 | 0.0 | 6.1 | 0.00 | 0.01 | 0.00 | 62 | 1009.9 |
| 20260506041559 | 68 | 0 | 0.9 | 2.6 | 0.00 | 0.01 | 0.00 | 60 | 1009.8 |
| 20260506040049 | 68 | 272 | 0.9 | 3.5 | 0.00 | 0.01 | 0.00 | 58 | 1009.8 |
| 20260506034540 | 69 | 0 | 0.9 | 4.3 | 0.00 | 0.01 | 0.01 | 56 | 1009.9 |
| 20260506033128 | 69 | 0 | 0.0 | 4.3 | 0.00 | 0.01 | 0.01 | 55 | 1009.7 |
| 20260506031544 | 70 | 327 | 0.0 | 7.8 | 0.00 | 0.01 | 0.01 | 53 | 1009.7 |
| 20260506030040 | 71 | 263 | 0.0 | 8.7 | 0.00 | 0.01 | 0.01 | 52 | 1009.6 |
| 20260506024545 | 71 | 271 | 0.9 | 2.6 | 0.00 | 0.01 | 0.01 | 52 | 1009.6 |
| 20260506023053 | 71 | 271 | 1.7 | 4.3 | 0.00 | 0.01 | 0.01 | 51 | 1009.7 |
| 20260506021547 | 71 | 271 | 0.9 | 4.3 | 0.00 | 0.01 | 0.01 | 51 | 1009.6 |
| 20260506020110 | 71 | 274 | 0.9 | 3.5 | 0.00 | 0.01 | 0.01 | 51 | 1009.5 |
| 20260506014540 | 72 | 291 | 0.9 | 7.8 | 0.00 | 0.01 | 0.01 | 50 | 1009.4 |
| 20260506013043 | 72 | 175 | 0.9 | 5.2 | 0.00 | 0.01 | 0.01 | 49 | 1009.2 |
| 20260506011549 | 72 | 262 | 0.9 | 3.5 | 0.00 | 0.01 | 0.01 | 47 | 1009.1 |
| 20260506010045 | 73 | 126 | 0.0 | 3.5 | 0.00 | 0.01 | 0.01 | 45 | 1008.9 |
| 20260506004551 | 74 | 2 | 0.0 | 6.1 | 0.00 | 0.01 | 0.01 | 44 | 1008.9 |
| 20260506003041 | 74 | 122 | 0.9 | 4.3 | 0.00 | 0.01 | 0.01 | 43 | 1008.6 |
| 20260506001554 | 75 | 0 | 0.9 | 6.1 | 0.00 | 0.01 | 0.01 | 41 | 1008.6 |
| 20260506000113 | 75 | 294 | 1.7 | 7.8 | 0.00 | 0.01 | 0.01 | 41 | 1008.4 |
| 20260505234548 | 76 | 209 | 1.7 | 5.2 | 0.00 | 0.01 | 0.01 | 41 | 1008.3 |
| 20260505233054 | 76 | 288 | 0.9 | 4.3 | 0.00 | 0.01 | 0.01 | 42 | 1008.2 |
| 20260505231556 | 76 | 302 | 1.7 | 6.1 | 0.00 | 0.01 | 0.01 | 41 | 1008.1 |
| 20260505230051 | 77 | 257 | 0.9 | 5.2 | 0.00 | 0.01 | 0.01 | 41 | 1007.9 |
| 20260505224551 | 77 | 259 | 0.9 | 8.7 | 0.00 | 0.01 | 0.01 | 40 | 1008.0 |
| 20260505223051 | 77 | 265 | 2.6 | 10.4 | 0.00 | 0.01 | 0.01 | 42 | 1007.8 |
| 20260505221548 | 77 | 262 | 1.7 | 7.0 | 0.00 | 0.01 | 0.01 | 40 | 1007.7 |
| 20260505220053 | 78 | 273 | 1.7 | 9.6 | 0.00 | 0.01 | 0.01 | 39 | 1007.6 |
| 20260505214554 | 79 | 228 | 4.3 | 13.0 | 0.00 | 0.01 | 0.01 | 38 | 1007.7 |
| 20260505213045 | 80 | 311 | 4.3 | 9.6 | 0.00 | 0.01 | 0.01 | 38 | 1007.5 |
| 20260505211623 | 81 | 236 | 3.5 | 14.8 | 0.00 | 0.01 | 0.01 | 37 | 1007.5 |
| 20260505210051 | 81 | 218 | 1.7 | 14.8 | 0.00 | 0.01 | 0.01 | 37 | 1007.3 |
| 20260505204559 | 82 | 257 | 2.6 | 10.4 | 0.00 | 0.01 | 0.01 | 36 | 1007.2 |
| 20260505203048 | 82 | 207 | 3.5 | 8.7 | 0.00 | 0.01 | 0.01 | 36 | 1007.5 |